Regional Weather Roundup
Issued by NWS

Home | Current Version | Previous Version | Graphics & Text | Print | Product List | Glossary On
Versions: 1 2 3 4 5 6 7 8 9 10 11 12 13 14 15 16 17 18 19 20 21 22 23 24 25 26 27 28 29 30 31 32 33 34 35 36 37 38 39 40 41 42 43 44 45 46 47 48 49 50
000
ASUS43 KFSD 031610
RWRSD

WEATHER ROUNDUP FOR SOUTH DAKOTA
NATIONAL WEATHER SERVICE SIOUX FALLS SD
1000 AM CST TUE MAR 03 2015

NOTE: "FAIR" INDICATES FEW OR NO CLOUDS BELOW 12,000 FEET WITH NO
SIGNIFICANT WEATHER AND/OR OBSTRUCTIONS TO VISIBILITY.


SDZ001>005-009-010-012>017-031700-
NORTHWEST AND NORTH CENTRAL SOUTH DAKOTA

CITY           SKY/WX    TMP DP  RH WIND       PRES   REMARKS
BUFFALO          N/A      9  -4  55 NW31G40   29.94R WCI -14
FAITH            N/A     11  -2  56 N26G35    30.01R WCI -10
MOBRIDGE       MOSUNNY   13  -1  54 NW29G37   29.99R WCI  -8
$$

SDZ012>016-024>037-041>051-057-063-072>074-031700-
SOUTHWEST AND SOUTH CENTRAL SOUTH DAKOTA

CITY           SKY/WX    TMP DP  RH WIND       PRES   REMARKS
RAPID CTY ARPT CLOUDY    13   1  59 N29G37    30.01R WCI  -8
PIERRE         MIX PCPN  17   8  67 NW24G31   30.02R WCI  -1
CUSTER         CLOUDY    11  -1  58 VRB6      29.82R WCI   1
ELLSWORTH AFB  FLURRIES  12   3  67 N29G40    29.97  WCI  -9
PHILIP         PTSUNNY   15   4  61 N28G33    30.04R WCI  -5
PINE RIDGE     LGT SNOW  14   5  67 N15G25    30.01R WCI  -1
SPEARFISH      FLURRIES   9   0  66 MISG      30.01R
WINNER         LGT SNOW  17   9  70 N23       30.00R WCI  -1
$$

SDZ004>011-016>023-039-040-031700-
NORTHEAST SOUTH DAKOTA

CITY           SKY/WX    TMP DP  RH WIND       PRES   REMARKS
ABERDEEN       LGT SNOW  13   4  67 NW33G40   29.97R VSB 1   WCI  -9
WATERTOWN      LGT SNOW  15  10  80 N32G41    29.81R VSB 3/4 WCI  -6
SISSETON         N/A     15  10  80 N28G43    29.85R WCI  -5
$$

SDZ017-020-022-023-036>040-048>070-031700-
SOUTHEAST SOUTH DAKOTA

CITY           SKY/WX    TMP DP  RH WIND       PRES   REMARKS
SIOUX FALLS    LGT SNOW  23  18  81 N26G37    29.76R BLWGSNOWWCI   6
HURON          LGT SNOW  16  10  77 NW35G43   29.92R WCI  -5
CHAMBERLAIN    CLOUDY    15   8  72 N30G43    29.98R HAZE    WCI  -5
MITCHELL       LGT SNOW  20  15  81 NW30G39   29.92R VSB 3/4 WCI   1
YANKTON        PTSUNNY  N/A N/A N/A NW31G47   29.84R
$$

ABBREVIATIONS USED IN REMARKS
   TC - TEMPERATURE IN CELSIUS
  WCI - WIND CHILL INDEX
   HX - HEAT INDEX
  VSB - VISIBILITY




USA.gov is the U.S. government's official web portal to all federal, state and local government web resources and services.